Home   Weather   Safed   Past weeks

Flag for Israel Past Weather in Safed, Israel — Yesterday and Last 2 Weeks

Now
64 °F

Passing clouds.


Feels Like: 64 °F
Forecast: 51 / 68 °F
Wind: 3 mph from South

Location: Beirut Airport

Current Time: Apr 29, 2017 at 2:37:41 am

Latest Report: Apr 29, 2017 at 2:00 am


Visibility: 5 mi

Pressure: 29.95 "Hg (27.36 "Hg at 772m altitude)

Humidity: 83%

Dew Point: 59 °F

Location of SafedLocation

Past Weather in Safed — Graph

°F

Safed Temperature Yesterday

Maximum temperature yesterday: 72 °F (at 12:00 pm)
Minimum temperature yesterday: 64 °F (at 4:00 am)
Average temperature yesterday: 67 °F

High & Low Weather Summary for the Past Weeks

 TemperatureHumidityPressure
High93 °F (Apr 22, 4:00 pm)88% (Apr 14, 11:00 pm)30.18 "Hg (Apr 14, 11:00 pm)
Low59 °F (Apr 25, 6:00 am)15% (Apr 22, 5:00 pm)29.68 "Hg (Apr 22, 6:00 pm)
Average68 °F63%30.03 "Hg
* Reported Apr 14 1:00 am — Apr 29 1:00 am, Safed, Weather by CustomWeather, © 2017

Note: Actual official high and low records may vary slightly from our data, if they occured in-between our weather recording intervals... More about our weather records

Advertising

Safed Weather History for the Previous 24 Hours

Scroll right to see more
 ConditionsComfort  
Time TempWeatherWind HumidityBarometerVisibility
1:00 am
Sat, Apr 29
64 °FPassing clouds.1 mph88%29.95 "Hg5 mi
12:00 am64 °FPassing clouds.2 mph88%29.98 "Hg5 mi
11:00 pm
Fri, Apr 28
66 °FClear.3 mph88%29.98 "Hg5 mi
10:00 pm66 °FClear.2 mph88%29.98 "Hg5 mi
9:00 pm66 °FClear.2 mph88%29.98 "Hg5 mi
8:00 pm66 °FClear.3 mph88%29.98 "Hg5 mi
7:00 pm68 °FPassing clouds.5 mph78%29.98 "Hg5 mi
6:00 pm68 °FPassing clouds.7 mph78%29.98 "Hg4 mi
5:00 pm70 °FPassing clouds.10 mph69%29.98 "Hg4 mi
4:00 pm70 °FPassing clouds.10 mph73%29.98 "Hg4 mi
3:00 pm70 °FPassing clouds.10 mph73%30.01 "Hg4 mi
2:00 pm70 °FPassing clouds.10 mph73%30.01 "Hg4 mi
1:00 pm70 °FPassing clouds.12 mph73%30.01 "Hg4 mi
12:00 pm72 °FPassing clouds.13 mph69%30.01 "Hg4 mi
11:00 am70 °FPassing clouds.14 mph78%30.01 "Hg4 mi
9:00 am68 °FScattered clouds.14 mph73%30.01 "Hg4 mi
8:00 am66 °FScattered clouds.6 mph73%29.98 "Hg4 mi
7:00 am64 °FScattered clouds.5 mph73%29.98 "Hg4 mi
6:00 am64 °FScattered clouds.2 mph78%29.98 "Hg4 mi
5:00 am64 °FFog.6 mph78%29.98 "Hg3 mi
4:00 am64 °FFog.6 mph83%29.98 "Hg3 mi
3:00 am66 °FFog.7 mph83%29.98 "Hg3 mi
2:00 am66 °FFog.9 mph83%29.98 "Hg3 mi
Weather by CustomWeather, © 2017

See weather overviewHow to use our weather pages